Location: Newark
(48.1333°N, 17.1000°E)
Time: 02:03:02
(UTC+00:00)

N. Korean satellite - Pass Details

Date: 26 January 2020
Orbit: 456 x 505 km, 97.2° (Epoch: 25 February)

Event Time Altitude Azimuth Distance (km) Brightness Sun altitude
Rises 03:42:53 0° 29° (NNE) 2,538 10.6 -27.4°
Reaches altitude 10° 03:45:37 10° 52° (NE) 1,664 9.9 -26.9°
Maximum altitude 03:47:51 16° 91° (E) 1,349 9.7 -26.5°
Drops below altitude 10° 03:50:06 10° 130° (SE) 1,672 9.9 -26.2°
Sets 03:52:50 0° 153° (SSE) 2,557 10.6 -25.7°
